Year,Month,Day,Hour,Minute,Value (Times are PST for temperature in C)
2022,04,19,00,00,-4.80
2022,04,19,00,01,-4.80
2022,04,19,00,02,-4.90
2022,04,19,00,03,-4.90
2022,04,19,00,04,-4.90
2022,04,19,00,05,-5.00
2022,04,19,00,06,-5.00
2022,04,19,00,07,-5.00
2022,04,19,00,08,-5.10
2022,04,19,00,09,-5.10
2022,04,19,00,10,-5.10
2022,04,19,00,11,-5.10
2022,04,19,00,12,-5.10
2022,04,19,00,13,-5.00
2022,04,19,00,14,-5.00
2022,04,19,00,15,-5.00
2022,04,19,00,16,-5.00
2022,04,19,00,17,-5.00
2022,04,19,00,18,-5.10
2022,04,19,00,19,-5.10
2022,04,19,00,20,-5.10
2022,04,19,00,21,-5.20
2022,04,19,00,22,-5.20
2022,04,19,00,23,-5.20
2022,04,19,00,24,-5.30
2022,04,19,00,25,-5.30
2022,04,19,00,26,-5.30
2022,04,19,00,27,-5.40
2022,04,19,00,28,-5.40
2022,04,19,00,29,-5.40
2022,04,19,00,30,-5.50
2022,04,19,00,31,-5.50
2022,04,19,00,32,-5.60
2022,04,19,00,33,-5.60
2022,04,19,00,34,-5.60
2022,04,19,00,35,-5.60
2022,04,19,00,36,-5.70
2022,04,19,00,37,-5.70
2022,04,19,00,38,-5.70
2022,04,19,00,39,-5.70
2022,04,19,00,40,-5.80
2022,04,19,00,41,-5.80
2022,04,19,00,42,-5.80
2022,04,19,00,43,-5.80
2022,04,19,00,44,-5.90
2022,04,19,00,45,-5.90
2022,04,19,00,46,-5.90
2022,04,19,00,47,-5.90
2022,04,19,00,48,-5.90
2022,04,19,00,49,-5.90
2022,04,19,00,50,-5.90
2022,04,19,00,51,-6.00
2022,04,19,00,52,-6.00
2022,04,19,00,53,-6.10
2022,04,19,00,54,-6.10
2022,04,19,00,55,-6.10
2022,04,19,00,56,-6.20
2022,04,19,00,57,-6.20
2022,04,19,00,58,-6.20
2022,04,19,00,59,-6.20
2022,04,19,01,00,-6.30
2022,04,19,01,01,-6.30
2022,04,19,01,02,-6.30
2022,04,19,01,03,-6.30
2022,04,19,01,04,-6.30
2022,04,19,01,05,-6.30
2022,04,19,01,06,-6.30
2022,04,19,01,07,-6.30
2022,04,19,01,08,-6.30
2022,04,19,01,09,-6.30
2022,04,19,01,10,-6.30
2022,04,19,01,11,-6.20
2022,04,19,01,12,-6.20
2022,04,19,01,13,-6.20
2022,04,19,01,14,-6.20
2022,04,19,01,15,-6.10
2022,04,19,01,16,-6.10
2022,04,19,01,17,-6.10
2022,04,19,01,18,-6.10
2022,04,19,01,19,-6.10
2022,04,19,01,20,-6.00
2022,04,19,01,21,-6.00
2022,04,19,01,22,-6.00
2022,04,19,01,23,-6.00
2022,04,19,01,24,-6.00
2022,04,19,01,25,-6.00
2022,04,19,01,26,-6.00
2022,04,19,01,27,-6.00
2022,04,19,01,28,-5.90
2022,04,19,01,29,-5.90
2022,04,19,01,30,-5.90
2022,04,19,01,31,-5.90
2022,04,19,01,32,-5.90
2022,04,19,01,33,-6.00
2022,04,19,01,34,-6.00
2022,04,19,01,35,-6.00
2022,04,19,01,36,-6.00
2022,04,19,01,37,-6.00
2022,04,19,01,38,-6.00
2022,04,19,01,39,-6.00
2022,04,19,01,40,-6.10
2022,04,19,01,41,-6.10
2022,04,19,01,42,-6.10
2022,04,19,01,43,-6.10
2022,04,19,01,44,-6.10
2022,04,19,01,45,-6.10
2022,04,19,01,46,-6.20
2022,04,19,01,47,-6.20
2022,04,19,01,48,-6.20
2022,04,19,01,49,-6.20
2022,04,19,01,50,-6.20
2022,04,19,01,51,-6.20
2022,04,19,01,52,-6.30
2022,04,19,01,53,-6.30
2022,04,19,01,54,-6.30
2022,04,19,01,55,-6.30
2022,04,19,01,56,-6.30
2022,04,19,01,57,-6.40
2022,04,19,01,58,-6.40
2022,04,19,01,59,-6.50
2022,04,19,02,00,-6.50
2022,04,19,02,01,-6.60
2022,04,19,02,02,-6.60
2022,04,19,02,03,-6.70
2022,04,19,02,04,-6.70
2022,04,19,02,05,-6.70
2022,04,19,02,06,-6.80
2022,04,19,02,07,-6.80
2022,04,19,02,08,-6.90
2022,04,19,02,09,-6.90
2022,04,19,02,10,-7.00
2022,04,19,02,11,-7.10
2022,04,19,02,12,-7.10
2022,04,19,02,13,-7.20
2022,04,19,02,14,-7.20
2022,04,19,02,15,-7.30
2022,04,19,02,16,-7.30
2022,04,19,02,17,-7.40
2022,04,19,02,18,-7.50
2022,04,19,02,19,-7.50
2022,04,19,02,20,-7.50
2022,04,19,02,21,-7.60
2022,04,19,02,22,-7.60
2022,04,19,02,23,-7.60
2022,04,19,02,24,-7.70
2022,04,19,02,25,-7.70
2022,04,19,02,26,-7.70
2022,04,19,02,27,-7.80
2022,04,19,02,28,-7.80
2022,04,19,02,29,-7.80
2022,04,19,02,30,-7.80
2022,04,19,02,31,-7.90
2022,04,19,02,32,-7.90
2022,04,19,02,33,-7.90
2022,04,19,02,34,-7.90
2022,04,19,02,35,-8.00
2022,04,19,02,36,-8.00
2022,04,19,02,37,-8.00
2022,04,19,02,38,-8.00
2022,04,19,02,39,-8.00
2022,04,19,02,40,-8.00
2022,04,19,02,41,-8.00
2022,04,19,02,42,-8.00
2022,04,19,02,43,-8.00
2022,04,19,02,44,-8.10
2022,04,19,02,45,-8.10
2022,04,19,02,46,-8.10
2022,04,19,02,47,-8.10
2022,04,19,02,48,-8.10
2022,04,19,02,49,-8.10
2022,04,19,02,50,-8.10
2022,04,19,02,51,-8.10
2022,04,19,02,52,-8.10
2022,04,19,02,53,-8.10
2022,04,19,02,54,-8.20
2022,04,19,02,55,-8.20
2022,04,19,02,56,-8.20
2022,04,19,02,57,-8.20
2022,04,19,02,58,-8.20
2022,04,19,02,59,-8.30
2022,04,19,03,00,-8.30
2022,04,19,03,01,-8.30
2022,04,19,03,02,-8.30
2022,04,19,03,03,-8.30
2022,04,19,03,04,-8.40
2022,04,19,03,05,-8.40
2022,04,19,03,06,-8.40
2022,04,19,03,07,-8.40
2022,04,19,03,08,-8.50
2022,04,19,03,09,-8.50
2022,04,19,03,10,-8.60
2022,04,19,03,11,-8.60
2022,04,19,03,12,-8.60
2022,04,19,03,13,-8.70
2022,04,19,03,14,-8.70
2022,04,19,03,15,-8.70
2022,04,19,03,16,-8.80
2022,04,19,03,17,-8.80
2022,04,19,03,18,-8.80
2022,04,19,03,19,-8.80
2022,04,19,03,20,-8.80
2022,04,19,03,21,-8.80
2022,04,19,03,22,-8.80
2022,04,19,03,23,-8.80
2022,04,19,03,24,-8.80
2022,04,19,03,25,-8.80
2022,04,19,03,26,-8.80
2022,04,19,03,27,-8.80
2022,04,19,03,28,-8.90
2022,04,19,03,29,-8.90
2022,04,19,03,30,-8.90
2022,04,19,03,31,-8.90
2022,04,19,03,32,-8.90
2022,04,19,03,33,-9.00
2022,04,19,03,34,-9.00
2022,04,19,03,35,-9.00
2022,04,19,03,36,-9.10
2022,04,19,03,37,-9.10
2022,04,19,03,38,-9.10
2022,04,19,03,39,-9.20
2022,04,19,03,40,-9.20
2022,04,19,03,41,-9.20
2022,04,19,03,42,-9.20
2022,04,19,03,43,-9.30
2022,04,19,03,44,-9.30
2022,04,19,03,45,-9.30
2022,04,19,03,46,-9.30
2022,04,19,03,47,-9.30
2022,04,19,03,48,-9.30
2022,04,19,03,49,-9.30
2022,04,19,03,50,-9.30
2022,04,19,03,51,-9.30
2022,04,19,03,52,-9.40
2022,04,19,03,53,-9.40
2022,04,19,03,54,-9.40
2022,04,19,03,55,-9.40
2022,04,19,03,56,-9.50
2022,04,19,03,57,-9.50
2022,04,19,03,58,-9.50
2022,04,19,03,59,-9.50
2022,04,19,04,00,-9.60
2022,04,19,04,01,-9.60
2022,04,19,04,02,-9.60
2022,04,19,04,03,-9.60
2022,04,19,04,04,-9.60
2022,04,19,04,05,-9.70
2022,04,19,04,06,-9.70
2022,04,19,04,07,-9.70
2022,04,19,04,08,-9.80
2022,04,19,04,09,-9.80
2022,04,19,04,10,-9.80
2022,04,19,04,11,-9.90
2022,04,19,04,12,-9.90
2022,04,19,04,13,-10.00
2022,04,19,04,14,-10.00
2022,04,19,04,15,-10.00
2022,04,19,04,16,-10.10
2022,04,19,04,17,-10.10
2022,04,19,04,18,-10.10
2022,04,19,04,19,-10.10
2022,04,19,04,20,-10.20
2022,04,19,04,21,-10.20
2022,04,19,04,22,-10.20
2022,04,19,04,23,-10.20
2022,04,19,04,24,-10.20
2022,04,19,04,25,-10.20
2022,04,19,04,26,-10.20
2022,04,19,04,27,-10.20
2022,04,19,04,28,-10.20
2022,04,19,04,29,-10.20
2022,04,19,04,30,-10.30
2022,04,19,04,31,-10.30
2022,04,19,04,32,-10.30
2022,04,19,04,33,-10.30
2022,04,19,04,34,-10.30
2022,04,19,04,35,-10.30
2022,04,19,04,36,-10.30
2022,04,19,04,37,-10.30
2022,04,19,04,38,-10.30
2022,04,19,04,39,-10.30
2022,04,19,04,40,-10.40
2022,04,19,04,41,-10.40
2022,04,19,04,42,-10.40
2022,04,19,04,43,-10.40
2022,04,19,04,44,-10.40
2022,04,19,04,45,-10.40
2022,04,19,04,46,-10.40
2022,04,19,04,47,-10.40
2022,04,19,04,48,-10.40
2022,04,19,04,49,-10.50
2022,04,19,04,50,-10.50
2022,04,19,04,51,-10.50
2022,04,19,04,52,-10.50
2022,04,19,04,53,-10.60
2022,04,19,04,54,-10.60
2022,04,19,04,55,-10.60
2022,04,19,04,56,-10.60
2022,04,19,04,57,-10.60
2022,04,19,04,58,-10.60
2022,04,19,04,59,-10.70
2022,04,19,05,00,-10.70
2022,04,19,05,01,-10.70
2022,04,19,05,02,-10.70
2022,04,19,05,03,-10.70
2022,04,19,05,04,-10.70
2022,04,19,05,05,-10.70
2022,04,19,05,06,-10.80
2022,04,19,05,07,-10.80
2022,04,19,05,08,-10.80
2022,04,19,05,09,-10.80
2022,04,19,05,10,-10.80
2022,04,19,05,11,-10.80
2022,04,19,05,12,-10.90
2022,04,19,05,13,-10.90
2022,04,19,05,14,-10.90
2022,04,19,05,15,-10.90
2022,04,19,05,16,-10.90
2022,04,19,05,17,-10.90
2022,04,19,05,18,-10.90
2022,04,19,05,19,-10.90
2022,04,19,05,20,-10.90
2022,04,19,05,21,-11.00
2022,04,19,05,22,-11.00
2022,04,19,05,23,-11.00
2022,04,19,05,24,-11.00
2022,04,19,05,25,-11.00
2022,04,19,05,26,-11.10
2022,04,19,05,27,-11.10
2022,04,19,05,28,-11.10
2022,04,19,05,29,-11.10
2022,04,19,05,30,-11.10
2022,04,19,05,31,-11.10
2022,04,19,05,32,-11.10
2022,04,19,05,33,-11.20
2022,04,19,05,34,-11.20
2022,04,19,05,35,-11.20
2022,04,19,05,36,-11.20
2022,04,19,05,37,-11.30
2022,04,19,05,38,-11.30
2022,04,19,05,39,-11.30
2022,04,19,05,40,-11.30
2022,04,19,05,41,-11.30
2022,04,19,05,42,-11.40
2022,04,19,05,43,-11.40
2022,04,19,05,44,-11.40
2022,04,19,05,45,-11.40
2022,04,19,05,46,-11.40
2022,04,19,05,47,-11.50
2022,04,19,05,48,-11.50
2022,04,19,05,49,-11.50
2022,04,19,05,50,-11.50
2022,04,19,05,51,-11.50
2022,04,19,05,52,-11.60
2022,04,19,05,53,-11.60
2022,04,19,05,54,-11.60
2022,04,19,05,55,-11.60
2022,04,19,05,56,-11.70
2022,04,19,05,57,-11.70
2022,04,19,05,58,-11.70
2022,04,19,05,59,-11.70
2022,04,19,06,00,-11.80
2022,04,19,06,01,-11.80
2022,04,19,06,02,-11.80
2022,04,19,06,03,-11.80
2022,04,19,06,04,-11.80
2022,04,19,06,05,-11.80
2022,04,19,06,06,-11.90
2022,04,19,06,07,-11.90
2022,04,19,06,08,-11.90
2022,04,19,06,09,-11.90
2022,04,19,06,10,-11.90
2022,04,19,06,11,-11.90
2022,04,19,06,12,-12.00
2022,04,19,06,13,-12.00
2022,04,19,06,14,-12.00
2022,04,19,06,15,-12.00
2022,04,19,06,16,-12.00
2022,04,19,06,17,-12.10
2022,04,19,06,18,-12.10
2022,04,19,06,19,-12.10
2022,04,19,06,20,-12.10
2022,04,19,06,21,-12.10
2022,04,19,06,22,-12.10
2022,04,19,06,23,-12.10
2022,04,19,06,24,-12.10
2022,04,19,06,25,-12.10
2022,04,19,06,26,-12.20
2022,04,19,06,27,-12.20
2022,04,19,06,28,-12.20
2022,04,19,06,29,-12.20
2022,04,19,06,30,-12.20
2022,04,19,06,31,-12.20
2022,04,19,06,32,-12.20
2022,04,19,06,33,-12.20
2022,04,19,06,34,-12.20
2022,04,19,06,35,-12.20
2022,04,19,06,36,-12.20
2022,04,19,06,37,-12.20
2022,04,19,06,38,-12.30
2022,04,19,06,39,-12.30
2022,04,19,06,40,-12.30
2022,04,19,06,41,-12.30
2022,04,19,06,42,-12.30
2022,04,19,06,43,-12.40
2022,04,19,06,44,-12.40
2022,04,19,06,45,-12.40
2022,04,19,06,46,-12.40
2022,04,19,06,47,-12.40
2022,04,19,06,48,-12.40
2022,04,19,06,49,-12.50
2022,04,19,06,50,-12.50
2022,04,19,06,51,-12.50
2022,04,19,06,52,-12.50
2022,04,19,06,53,-12.60
2022,04,19,06,54,-12.60
2022,04,19,06,55,-12.60
2022,04,19,06,56,-12.60
2022,04,19,06,57,-12.60
2022,04,19,06,58,-12.60
2022,04,19,06,59,-12.60
2022,04,19,07,00,-12.60
2022,04,19,07,01,-12.60
2022,04,19,07,02,-12.60
2022,04,19,07,03,-12.60
2022,04,19,07,04,-12.60
2022,04,19,07,05,-12.60
2022,04,19,07,06,-12.60
2022,04,19,07,07,-12.60
2022,04,19,07,08,-12.70
2022,04,19,07,09,-12.70
2022,04,19,07,10,-12.70
2022,04,19,07,11,-12.70
2022,04,19,07,12,-12.70
2022,04,19,07,13,-12.70
2022,04,19,07,14,-12.70
2022,04,19,07,15,-12.70
2022,04,19,07,16,-12.70
2022,04,19,07,17,-12.70
2022,04,19,07,18,-12.70
2022,04,19,07,19,-12.70
2022,04,19,07,20,-12.80
2022,04,19,07,21,-12.80
2022,04,19,07,22,-12.80
2022,04,19,07,23,-12.80
2022,04,19,07,24,-12.80
2022,04,19,07,25,-12.80
2022,04,19,07,26,-12.80
2022,04,19,07,27,-12.80
2022,04,19,07,28,-12.80
2022,04,19,07,29,-12.80
2022,04,19,07,30,-12.80
2022,04,19,07,31,-12.80
2022,04,19,07,32,-12.80
2022,04,19,07,33,-12.80
2022,04,19,07,34,-12.80
2022,04,19,07,35,-12.80
2022,04,19,07,36,-12.80
2022,04,19,07,37,-12.80
2022,04,19,07,38,-12.80
2022,04,19,07,39,-12.80
2022,04,19,07,40,-12.80
2022,04,19,07,41,-12.80
2022,04,19,07,42,-12.80
2022,04,19,07,43,-12.80
2022,04,19,07,44,-12.80
2022,04,19,07,45,-12.80
2022,04,19,07,46,-12.80
2022,04,19,07,47,-12.80
2022,04,19,07,48,-12.80
2022,04,19,07,49,-12.80
2022,04,19,07,50,-12.80
2022,04,19,07,51,-12.80
2022,04,19,07,52,-12.80
2022,04,19,07,53,-12.80
2022,04,19,07,54,-12.80
2022,04,19,07,55,-12.90
2022,04,19,07,56,-12.90
2022,04,19,07,57,-12.90
2022,04,19,07,58,-12.90
2022,04,19,07,59,-12.90
2022,04,19,08,00,-12.90
2022,04,19,08,01,-12.90
2022,04,19,08,02,-12.90
2022,04,19,08,03,-12.90
2022,04,19,08,04,-12.90
2022,04,19,08,05,-12.90
2022,04,19,08,06,-12.90
2022,04,19,08,07,-12.90
2022,04,19,08,08,-12.90
2022,04,19,08,09,-12.90
2022,04,19,08,10,-12.90
2022,04,19,08,11,-12.90
2022,04,19,08,12,-13.00
2022,04,19,08,13,-13.00
2022,04,19,08,14,-13.00
2022,04,19,08,15,-13.00
2022,04,19,08,16,-13.00
2022,04,19,08,17,-13.00
2022,04,19,08,18,-13.00
2022,04,19,08,19,-13.00
2022,04,19,08,20,-13.00
2022,04,19,08,21,-13.00
2022,04,19,08,22,-13.00
2022,04,19,08,23,-13.00
2022,04,19,08,24,-13.00
2022,04,19,08,25,-13.00
2022,04,19,08,26,-13.00
2022,04,19,08,27,-13.00
2022,04,19,08,28,-13.00
2022,04,19,08,29,-13.00
2022,04,19,08,30,-13.00
2022,04,19,08,31,-13.00
2022,04,19,08,32,-13.10
2022,04,19,08,33,-13.10
2022,04,19,08,34,-13.10
2022,04,19,08,35,-13.10
2022,04,19,08,36,-13.10
2022,04,19,08,37,-13.10
2022,04,19,08,38,-13.00
2022,04,19,08,39,-13.00
2022,04,19,08,40,-13.00
2022,04,19,08,41,-12.90
2022,04,19,08,42,-12.90
2022,04,19,08,43,-12.90
2022,04,19,08,44,-12.90
2022,04,19,08,45,-12.90
2022,04,19,08,46,-12.90
2022,04,19,08,47,-12.90
2022,04,19,08,48,-12.90
2022,04,19,08,49,-12.90
2022,04,19,08,50,-12.90
2022,04,19,08,51,-12.90
2022,04,19,08,52,-12.90
2022,04,19,08,53,-12.90
2022,04,19,08,54,-12.90
2022,04,19,08,55,-12.80
2022,04,19,08,56,-12.80
2022,04,19,08,57,-12.80
2022,04,19,08,58,-12.80
2022,04,19,08,59,-12.80
2022,04,19,09,00,-12.80
2022,04,19,09,01,-12.80
2022,04,19,09,02,-12.70
2022,04,19,09,03,-12.70
2022,04,19,09,04,-12.70
2022,04,19,09,05,-12.70
2022,04,19,09,06,-12.60
2022,04,19,09,07,-12.60
2022,04,19,09,08,-12.60
2022,04,19,09,09,-12.60
2022,04,19,09,10,-12.50
2022,04,19,09,11,-12.50
2022,04,19,09,12,-12.50
2022,04,19,09,13,-12.50
2022,04,19,09,14,-12.40
2022,04,19,09,15,-12.40
2022,04,19,09,16,-12.40
2022,04,19,09,17,-12.40
2022,04,19,09,18,-12.40
2022,04,19,09,19,-12.40
2022,04,19,09,20,-12.30
2022,04,19,09,21,-12.30
2022,04,19,09,22,-12.20
2022,04,19,09,23,-12.20
2022,04,19,09,24,-12.10
2022,04,19,09,25,-11.90
2022,04,19,09,26,-11.80
2022,04,19,09,27,-11.60
2022,04,19,09,28,-11.50
2022,04,19,09,29,-11.30
2022,04,19,09,30,-11.20
2022,04,19,09,31,-11.10
2022,04,19,09,32,-11.00
2022,04,19,09,33,-10.90
2022,04,19,09,34,-10.80
2022,04,19,09,35,-10.80
2022,04,19,09,36,-10.70
2022,04,19,09,37,-10.60
2022,04,19,09,38,-10.50
2022,04,19,09,39,-10.40
2022,04,19,09,40,-10.30
2022,04,19,09,41,-10.20
2022,04,19,09,42,-10.10
2022,04,19,09,43,-10.00
2022,04,19,09,44,-10.00
2022,04,19,09,45,-9.90
2022,04,19,09,46,-9.80
2022,04,19,09,47,-9.80
2022,04,19,09,48,-9.70
2022,04,19,09,49,-9.60
2022,04,19,09,50,-9.60
2022,04,19,09,51,-9.50
2022,04,19,09,52,-9.40
2022,04,19,09,53,-9.30
2022,04,19,09,54,-9.20
2022,04,19,09,55,-9.20
2022,04,19,09,56,-9.10
2022,04,19,09,57,-9.10
2022,04,19,09,58,-9.00
2022,04,19,09,59,-8.90
2022,04,19,10,00,-8.80
2022,04,19,10,01,-8.80
2022,04,19,10,02,-8.70
2022,04,19,10,03,-8.60
2022,04,19,10,04,-8.50
2022,04,19,10,05,-8.40
2022,04,19,10,06,-8.20
2022,04,19,10,07,-8.10
2022,04,19,10,08,-8.00
2022,04,19,10,09,-8.00
2022,04,19,10,10,-7.90
2022,04,19,10,11,-7.90
2022,04,19,10,12,-7.80
2022,04,19,10,13,-7.80
2022,04,19,10,14,-7.80
2022,04,19,10,15,-7.80
2022,04,19,10,16,-7.80
2022,04,19,10,17,-7.80
2022,04,19,10,18,-7.80
2022,04,19,10,19,-7.70
2022,04,19,10,20,-7.80
2022,04,19,10,21,-7.80
2022,04,19,10,22,-7.70
2022,04,19,10,23,-7.70
2022,04,19,10,24,-7.70
2022,04,19,10,25,-7.70
2022,04,19,10,26,-7.70
2022,04,19,10,27,-7.70
2022,04,19,10,28,-7.70
2022,04,19,10,29,-7.70
2022,04,19,10,30,-7.70
2022,04,19,10,31,-7.60
2022,04,19,10,32,-7.60
2022,04,19,10,33,-7.50
2022,04,19,10,34,-7.40
2022,04,19,10,35,-7.30
2022,04,19,10,36,-7.20
2022,04,19,10,37,-7.00
2022,04,19,10,38,-6.80
2022,04,19,10,39,-6.70
2022,04,19,10,40,-6.60
2022,04,19,10,41,-6.50
2022,04,19,10,42,-6.50
2022,04,19,10,43,-6.40
2022,04,19,10,44,-6.40
2022,04,19,10,45,-6.30
2022,04,19,10,46,-6.30
2022,04,19,10,47,-6.20
2022,04,19,10,48,-6.00
2022,04,19,10,49,-5.90
2022,04,19,10,50,-5.80
2022,04,19,10,51,-5.70
2022,04,19,10,52,-5.60
2022,04,19,10,53,-5.50
2022,04,19,10,54,-5.50
2022,04,19,10,55,-5.40
2022,04,19,10,56,-5.30
2022,04,19,10,57,-5.20
2022,04,19,10,58,-5.10
2022,04,19,10,59,-5.00
2022,04,19,11,00,-4.90
2022,04,19,11,01,-4.90
2022,04,19,11,02,-4.80
2022,04,19,11,03,-4.70
2022,04,19,11,04,-4.70
2022,04,19,11,05,-4.70
2022,04,19,11,06,-4.60
2022,04,19,11,07,-4.50
2022,04,19,11,08,-4.50
2022,04,19,11,09,-4.40
2022,04,19,11,10,-4.30
2022,04,19,11,11,-4.30
2022,04,19,11,12,-4.20
2022,04,19,11,13,-4.20
2022,04,19,11,14,-4.20
2022,04,19,11,15,-4.20
2022,04,19,11,16,-4.20
2022,04,19,11,17,-4.20
2022,04,19,11,18,-4.20
2022,04,19,11,19,-4.20
2022,04,19,11,20,-4.20
2022,04,19,11,21,-4.20
2022,04,19,11,22,-4.10
2022,04,19,11,23,-4.10
2022,04,19,11,24,-4.10
2022,04,19,11,25,-4.10
2022,04,19,11,26,-4.10
2022,04,19,11,27,-4.00
2022,04,19,11,28,-3.90
2022,04,19,11,29,-3.90
2022,04,19,11,30,-3.80
2022,04,19,11,31,-3.80
2022,04,19,11,32,-3.70
2022,04,19,11,33,-3.60
2022,04,19,11,34,-3.60
2022,04,19,11,35,-3.50
2022,04,19,11,36,-3.40
2022,04,19,11,37,-3.40
2022,04,19,11,38,-3.30
2022,04,19,11,39,-3.30
2022,04,19,11,40,-3.20
2022,04,19,11,41,-3.20
2022,04,19,11,42,-3.10
2022,04,19,11,43,-3.10
2022,04,19,11,44,-3.10
2022,04,19,11,45,-3.10
2022,04,19,11,46,-3.10
2022,04,19,11,47,-3.10
2022,04,19,11,48,-3.10
2022,04,19,11,49,-3.10
2022,04,19,11,50,-3.10
2022,04,19,11,51,-3.10
2022,04,19,11,52,-3.10
2022,04,19,11,53,-3.10
2022,04,19,11,54,-3.00
2022,04,19,11,55,-3.00
2022,04,19,11,56,-3.00
2022,04,19,11,57,-2.90
2022,04,19,11,58,-2.90
2022,04,19,11,59,-2.90
2022,04,19,12,00,-2.90
2022,04,19,12,01,-2.80
2022,04,19,12,02,-2.80
2022,04,19,12,03,-2.70
2022,04,19,12,04,-2.70
2022,04,19,12,05,-2.60
2022,04,19,12,06,-2.50
2022,04,19,12,07,-2.40
2022,04,19,12,08,-2.30
2022,04,19,12,09,-2.30
2022,04,19,12,10,-2.20
2022,04,19,12,11,-2.20
2022,04,19,12,12,-2.20
2022,04,19,12,13,-2.10
2022,04,19,12,14,-2.10
2022,04,19,12,15,-2.00
2022,04,19,12,16,-2.00
2022,04,19,12,17,-1.90
2022,04,19,12,18,-1.80
2022,04,19,12,19,-1.80
2022,04,19,12,20,-1.70
2022,04,19,12,21,-1.70
2022,04,19,12,22,-1.60
2022,04,19,12,23,-1.50
2022,04,19,12,24,-1.40
2022,04,19,12,25,-1.30
2022,04,19,12,26,-1.20
2022,04,19,12,27,-1.10
2022,04,19,12,28,-1.00
2022,04,19,12,29,-1.00
2022,04,19,12,30,-0.90
2022,04,19,12,31,-0.80
2022,04,19,12,32,-0.70
2022,04,19,12,33,-0.70
2022,04,19,12,34,-0.70
2022,04,19,12,35,-0.60
2022,04,19,12,36,-0.50
2022,04,19,12,37,-0.40
2022,04,19,12,38,-0.30
2022,04,19,12,39,-0.30
2022,04,19,12,40,-0.20
2022,04,19,12,41,0.00
2022,04,19,12,42,0.10
2022,04,19,12,43,0.30
2022,04,19,12,44,0.40
2022,04,19,12,45,0.50
2022,04,19,12,46,0.60
2022,04,19,12,47,0.70
2022,04,19,12,48,0.80
2022,04,19,12,49,1.00
2022,04,19,12,50,1.10
2022,04,19,12,51,1.30
2022,04,19,12,52,1.40
2022,04,19,12,53,1.60
2022,04,19,12,54,1.70
2022,04,19,12,55,1.90
2022,04,19,12,56,2.00
2022,04,19,12,57,2.10
2022,04,19,12,58,2.10
2022,04,19,12,59,2.10
2022,04,19,13,00,2.20
2022,04,19,13,01,2.30
2022,04,19,13,02,2.40
2022,04,19,13,03,2.50
2022,04,19,13,04,2.60
2022,04,19,13,05,2.70
2022,04,19,13,06,2.70
2022,04,19,13,07,2.80
2022,04,19,13,08,2.80
2022,04,19,13,09,2.80
2022,04,19,13,10,2.90
2022,04,19,13,11,2.90
2022,04,19,13,12,3.00
2022,04,19,13,13,3.10
2022,04,19,13,14,3.10
2022,04,19,13,15,3.20
2022,04,19,13,16,3.20
2022,04,19,13,17,3.30
2022,04,19,13,18,3.30
2022,04,19,13,19,3.40
2022,04,19,13,20,3.40
2022,04,19,13,21,3.40
2022,04,19,13,22,3.50
2022,04,19,13,23,3.50
2022,04,19,13,24,3.50
2022,04,19,13,25,3.50
2022,04,19,13,26,3.50
2022,04,19,13,27,3.40
2022,04,19,13,28,3.40
2022,04,19,13,29,3.30
2022,04,19,13,30,3.30
2022,04,19,13,31,3.40
2022,04,19,13,32,3.40
2022,04,19,13,33,3.50
2022,04,19,13,34,3.50
2022,04,19,13,35,3.50
2022,04,19,13,36,3.50
2022,04,19,13,37,3.50
2022,04,19,13,38,3.50
2022,04,19,13,39,3.60
2022,04,19,13,40,3.60
2022,04,19,13,41,3.60
2022,04,19,13,42,3.50
2022,04,19,13,43,3.50
2022,04,19,13,44,3.50
2022,04,19,13,45,3.50
2022,04,19,13,46,3.50
2022,04,19,13,47,3.50
2022,04,19,13,48,3.50
2022,04,19,13,49,3.60
2022,04,19,13,50,3.60
2022,04,19,13,51,3.60
2022,04,19,13,52,3.70
2022,04,19,13,53,3.70
2022,04,19,13,54,3.70
2022,04,19,13,55,3.70
2022,04,19,13,56,3.70
2022,04,19,13,57,3.70
2022,04,19,13,58,3.70
2022,04,19,13,59,3.80
2022,04,19,14,00,3.80
2022,04,19,14,01,3.90
2022,04,19,14,02,4.00
2022,04,19,14,03,4.00
2022,04,19,14,04,4.10
2022,04,19,14,05,4.00
2022,04,19,14,06,4.00
2022,04,19,14,07,3.90
2022,04,19,14,08,4.00
2022,04,19,14,09,4.00
2022,04,19,14,10,4.00
2022,04,19,14,11,4.00
2022,04,19,14,12,4.00
2022,04,19,14,13,4.00
2022,04,19,14,14,4.10
2022,04,19,14,15,4.10
2022,04,19,14,16,4.10
2022,04,19,14,17,4.10
2022,04,19,14,18,4.10
2022,04,19,14,19,4.10
2022,04,19,14,20,4.10
2022,04,19,14,21,4.20
2022,04,19,14,22,4.20
2022,04,19,14,23,4.10
2022,04,19,14,24,4.20
2022,04,19,14,25,4.20
2022,04,19,14,26,4.20
2022,04,19,14,27,4.20
2022,04,19,14,28,4.20
2022,04,19,14,29,4.20
2022,04,19,14,30,4.20
2022,04,19,14,31,4.20
2022,04,19,14,32,4.30
2022,04,19,14,33,4.30
2022,04,19,14,34,4.30
2022,04,19,14,35,4.30
2022,04,19,14,36,4.40
2022,04,19,14,37,4.40
2022,04,19,14,38,4.30
2022,04,19,14,39,4.30
2022,04,19,14,40,4.30
2022,04,19,14,41,4.30
2022,04,19,14,42,4.30
2022,04,19,14,43,4.30
2022,04,19,14,44,4.30
2022,04,19,14,45,4.30
2022,04,19,14,46,4.20
2022,04,19,14,47,4.20
2022,04,19,14,48,4.20
2022,04,19,14,49,4.20
2022,04,19,14,50,4.30
2022,04,19,14,51,4.30
2022,04,19,14,52,4.40
2022,04,19,14,53,4.40
2022,04,19,14,54,4.50
2022,04,19,14,55,4.50
2022,04,19,14,56,4.50
2022,04,19,14,57,4.50
2022,04,19,14,58,4.60
2022,04,19,14,59,4.60
2022,04,19,15,00,4.60
2022,04,19,15,01,4.60
2022,04,19,15,02,4.60
2022,04,19,15,03,4.60
2022,04,19,15,04,4.60
2022,04,19,15,05,4.70
2022,04,19,15,06,4.70
2022,04,19,15,07,4.80
2022,04,19,15,08,4.80
2022,04,19,15,09,4.80
2022,04,19,15,10,4.80
2022,04,19,15,11,4.80
2022,04,19,15,12,4.80
2022,04,19,15,13,4.80
2022,04,19,15,14,4.80
2022,04,19,15,15,4.80
2022,04,19,15,16,4.80
2022,04,19,15,17,4.80
2022,04,19,15,18,4.80
2022,04,19,15,19,4.80
2022,04,19,15,20,4.80
2022,04,19,15,21,4.80
2022,04,19,15,22,4.80
2022,04,19,15,23,4.80
2022,04,19,15,24,4.80
2022,04,19,15,25,4.80
2022,04,19,15,26,4.80
2022,04,19,15,27,4.80
2022,04,19,15,28,4.80
2022,04,19,15,29,4.90
2022,04,19,15,30,4.90
2022,04,19,15,31,5.00
2022,04,19,15,32,5.00
2022,04,19,15,33,5.10
2022,04,19,15,34,5.10
2022,04,19,15,35,5.20
2022,04,19,15,36,5.20
2022,04,19,15,37,5.20
2022,04,19,15,38,5.20
2022,04,19,15,39,5.20
2022,04,19,15,40,5.20
2022,04,19,15,41,5.20
2022,04,19,15,42,5.20
2022,04,19,15,43,5.20
2022,04,19,15,44,5.20
2022,04,19,15,45,5.30
2022,04,19,15,46,5.30
2022,04,19,15,47,5.30
2022,04,19,15,48,5.30
2022,04,19,15,49,5.40
2022,04,19,15,50,5.40
2022,04,19,15,51,5.50
2022,04,19,15,52,5.50
2022,04,19,15,53,5.60
2022,04,19,15,54,5.60
2022,04,19,15,55,5.60
2022,04,19,15,56,5.60
2022,04,19,15,57,5.70
2022,04,19,15,58,5.60
2022,04,19,15,59,5.70
2022,04,19,16,00,5.70
2022,04,19,16,01,5.70
2022,04,19,16,02,5.70
2022,04,19,16,03,5.70
2022,04,19,16,04,5.70
2022,04,19,16,05,5.70
2022,04,19,16,06,5.70
2022,04,19,16,07,5.70
2022,04,19,16,08,5.70
2022,04,19,16,09,5.60
2022,04,19,16,10,5.60
2022,04,19,16,11,5.60
2022,04,19,16,12,5.60
2022,04,19,16,13,5.60
2022,04,19,16,14,5.60
2022,04,19,16,15,5.60
2022,04,19,16,16,5.50
2022,04,19,16,17,5.50
2022,04,19,16,18,5.50
2022,04,19,16,19,5.50
2022,04,19,16,20,5.50
2022,04,19,16,21,5.50
2022,04,19,16,22,5.50
2022,04,19,16,23,5.50
2022,04,19,16,24,5.50
2022,04,19,16,25,5.50
2022,04,19,16,26,5.50
2022,04,19,16,27,5.50
2022,04,19,16,28,5.50
2022,04,19,16,29,5.50
2022,04,19,16,30,5.50
2022,04,19,16,31,5.50
2022,04,19,16,32,5.50
2022,04,19,16,33,5.40
2022,04,19,16,34,5.40
2022,04,19,16,35,5.40
2022,04,19,16,36,5.40
2022,04,19,16,37,5.40
2022,04,19,16,38,5.50
2022,04,19,16,39,5.50
2022,04,19,16,40,5.60
2022,04,19,16,41,5.60
2022,04,19,16,42,5.60
2022,04,19,16,43,5.70
2022,04,19,16,44,5.70
2022,04,19,16,45,5.70
2022,04,19,16,46,5.70
2022,04,19,16,47,5.70
2022,04,19,16,48,5.70
2022,04,19,16,49,5.70
2022,04,19,16,50,5.70
2022,04,19,16,51,5.70
2022,04,19,16,52,5.70
2022,04,19,16,53,5.80
2022,04,19,16,54,5.80
2022,04,19,16,55,5.90
2022,04,19,16,56,6.00
2022,04,19,16,57,6.00
2022,04,19,16,58,6.10
2022,04,19,16,59,6.10
2022,04,19,17,00,6.10
2022,04,19,17,01,6.10
2022,04,19,17,02,6.20
2022,04,19,17,03,6.20
2022,04,19,17,04,6.20
2022,04,19,17,05,6.20
2022,04,19,17,06,6.30
2022,04,19,17,07,6.30
2022,04,19,17,08,6.40
2022,04,19,17,09,6.30
2022,04,19,17,10,6.30
2022,04,19,17,11,6.30
2022,04,19,17,12,6.30
2022,04,19,17,13,6.30
2022,04,19,17,14,6.30
2022,04,19,17,15,6.20
2022,04,19,17,16,6.20
2022,04,19,17,17,6.20